Address 0xfefc938c543751babc46cc1d662b982bd1636721 7

 
Ad
Ad
Txn Hash Method
Block
From
To
Value [Txn Fee]
0xffc96d9f25ad71a9f103be08d46729b6b012fff594ef0a216f1f60d3a8d252790xfa829818194130612021-09-23 7:51:2323 days 23 hrs ago0xfefc938c543751babc46cc1d662b982bd1636721OUT 0xa4ede2c4cb210cd07dafbce56da8d36b7d688cd00 MATIC0.00106350876
0x7f56fd765008520438cd7ac1a73fb578a2e13c9e96a2f31fdc70b6fdca255a140xfa829818194130512021-09-23 7:50:5923 days 23 hrs ago0xfefc938c543751babc46cc1d662b982bd1636721OUT 0xa4ede2c4cb210cd07dafbce56da8d36b7d688cd00 MATIC0.00023991984
0x3011a040da35a7d378cc3b26c180b2bcfa578bc282315b8ecce7adebde6dc8c40x40957410194129762021-09-23 7:48:1923 days 23 hrs ago0xfefc938c543751babc46cc1d662b982bd1636721OUT 0xa4ede2c4cb210cd07dafbce56da8d36b7d688cd00 MATIC0.000471396277
0x9803d25dcb1a4f99b288f6dde462e8edc01c27a22b1169dd232e03a3f574d2690x40957410194125222021-09-23 7:28:2323 days 23 hrs ago0xfefc938c543751babc46cc1d662b982bd1636721OUT 0xa4ede2c4cb210cd07dafbce56da8d36b7d688cd00 MATIC0.000216155
0xb7a4022f15f1e91e19fe316546bb1d98dd0fa38b8c153ca2abdaa7380506ee380x40957410194125082021-09-23 7:27:5523 days 23 hrs ago0xfefc938c543751babc46cc1d662b982bd1636721OUT 0xa4ede2c4cb210cd07dafbce56da8d36b7d688cd00 MATIC0.000216126
0xf2486b64a6bcdc4c43e09b37678a669fb15220e0555582b503b29e9581f4a05b0x40957410194108192021-09-23 6:25:3724 days 55 mins ago0xfefc938c543751babc46cc1d662b982bd1636721OUT 0xa4ede2c4cb210cd07dafbce56da8d36b7d688cd00 MATIC0.00406344
0x67222e2957c8af4bd4fb2fffedeffb61516d96edc6ac17cbd24c174d7fc7058b0x40957410194107962021-09-23 6:24:4724 days 56 mins ago0xfefc938c543751babc46cc1d662b982bd1636721OUT 0xa4ede2c4cb210cd07dafbce56da8d36b7d688cd00 MATIC0.001080835
0xac3984f7654fac5d9ccca966841a3b4966819d4caab41a37435b453ea882bb820x40957410194106862021-09-23 6:20:5524 days 1 hr ago0xfefc938c543751babc46cc1d662b982bd1636721OUT 0xa4ede2c4cb210cd07dafbce56da8d36b7d688cd00 MATIC0.002986494
0xf48631fb7a181629047e97e73e7cc308e1a797179d12ea9fa891c554170e588e0xfa829818194106652021-09-23 6:18:4924 days 1 hr ago0xfefc938c543751babc46cc1d662b982bd1636721OUT 0xa4ede2c4cb210cd07dafbce56da8d36b7d688cd00 MATIC0.00504759
0x931c9dd3e3678cd43844a3443646db0886c206fe861869adcd594415b79668be0xfa829818194099752021-09-23 5:48:0124 days 1 hr ago0xfefc938c543751babc46cc1d662b982bd1636721OUT 0xa4ede2c4cb210cd07dafbce56da8d36b7d688cd00 MATIC0.000216156
0xa0b0bc83a432d72640cf56be9bfafbb3ad5ede94cd69f20efb3eccce99cfad260x40957410193788222021-09-22 8:34:5924 days 22 hrs ago0xfefc938c543751babc46cc1d662b982bd1636721OUT 0xa4ede2c4cb210cd07dafbce56da8d36b7d688cd00 MATIC0.001034445
0x341393c2bf6f8636995c081fa28846f23f315d261037f99f87d17a0f3938f841Transfer193788122021-09-22 8:34:0724 days 22 hrs ago0xfefc938c543751babc46cc1d662b982bd1636721SELF0xfefc938c543751babc46cc1d662b982bd16367210 MATIC0.0000231
0xfe1de346a96fde7044941bd3b9dd8bf7da4f0e0e2d5d940ee3aa8169aa1575420xfa829818193786022021-09-22 8:26:5424 days 22 hrs ago0xfefc938c543751babc46cc1d662b982bd1636721OUT 0xa4ede2c4cb210cd07dafbce56da8d36b7d688cd00 MATIC0.000336489033
0xd685828b292d82482d0168ff388446c02a13226b62953e7d0a03bccf6aa1c9cb0x40957410188679062021-09-08 2:37:2939 days 4 hrs ago0xfefc938c543751babc46cc1d662b982bd1636721OUT 0xa4ede2c4cb210cd07dafbce56da8d36b7d688cd00 MATIC0.010516037
0x9666d6d8c5e8801664ef9c6e3643657903ef02ad8d9931ca81304a29a7102ffbTransfer188678832021-09-08 2:36:3939 days 4 hrs ago0xfefc938c543751babc46cc1d662b982bd1636721SELF0xfefc938c543751babc46cc1d662b982bd16367210 MATIC0.0005082
0x94b56103c8106c31c9fb28412472ea0da3fb3bbde75d7c6ae1430cbc9eb0269a0xfa829818188665142021-09-08 1:34:3939 days 5 hrs ago0xfefc938c543751babc46cc1d662b982bd1636721OUT 0xa4ede2c4cb210cd07dafbce56da8d36b7d688cd00 MATIC0.005114288
0x4205f2564c12f04207c0e0baa5e891dcd01b855490f4d614b19ff7464e9d29660x40957410188664752021-09-08 1:32:3739 days 5 hrs ago0xfefc938c543751babc46cc1d662b982bd1636721OUT 0xa4ede2c4cb210cd07dafbce56da8d36b7d688cd00 MATIC0.00344779
0x4417e1c5a618ffb2b0b22e1c1111754827b7ab8233b48477fb71762e363438c4Remove Liquidity188306232021-09-07 1:46:4840 days 5 hrs ago0xfefc938c543751babc46cc1d662b982bd1636721OUT 0x7e412350a64bd454c800d1273cea59c78d708eab0 MATIC0.00040924
0x1aaed836d450cc0dea9101b2c73bc96276ecc4f98b571716360ce6f6ae60b4efAdd Liquidity188305062021-09-07 1:42:4640 days 5 hrs ago0xfefc938c543751babc46cc1d662b982bd1636721OUT 0x7e412350a64bd454c800d1273cea59c78d708eab0 MATIC0.000302724
0xce96fd94e615a2807e3f68736e5cf59f56ce054f94cf5e4c48c5215ffcd4d53f0x01862c78188062872021-09-06 10:36:5140 days 20 hrs ago0xfefc938c543751babc46cc1d662b982bd1636721OUT 0xa4ede2c4cb210cd07dafbce56da8d36b7d688cd00 MATIC0.00162654
0x6064308fc673b5d6f1aba464d03f1d87ec5edecde733e0d67eb3aa8f72258c870x01862c78188062502021-09-06 10:35:3340 days 20 hrs ago0xfefc938c543751babc46cc1d662b982bd1636721OUT 0xa4ede2c4cb210cd07dafbce56da8d36b7d688cd00 MATIC0.002055616
0xc3a0559f4724a9dec8433fb86bfcd9ead4b222180c1e0dd7785cc9f3f34fc6070xc7405e76188062242021-09-06 10:34:4140 days 20 hrs ago0xfefc938c543751babc46cc1d662b982bd1636721OUT 0xa4ede2c4cb210cd07dafbce56da8d36b7d688cd00 MATIC0.001720588
0xee51186bb28001bb4c47ae4f3393fe2163727498074ad9722d8534692f32b70d0xc7405e76188062032021-09-06 10:33:5540 days 20 hrs ago0xfefc938c543751babc46cc1d662b982bd1636721OUT 0xa4ede2c4cb210cd07dafbce56da8d36b7d688cd00 MATIC0.00023050926
0xe1eea053a4c16c0c1efe5510519369988d21538236ca17cc5efb40b108f764790x01862c78188061682021-09-06 10:32:4540 days 20 hrs ago0xfefc938c543751babc46cc1d662b982bd1636721OUT 0xb144cce7992f792a7c41c2a341878b28b8a119840 MATIC0.0006034626
0x75dfd968b6ad820d928697e603670c8f802d3efc16f7181abc3dc6b2581cd7340x01862c78188061472021-09-06 10:32:0340 days 20 hrs ago0xfefc938c543751babc46cc1d662b982bd1636721OUT 0xb144cce7992f792a7c41c2a341878b28b8a119840 MATIC0.00199418
[ Download CSV Export 
Parent Txn Hash Block From To Value
Loading

Contract Name:
0 MATIC

Compiler Version
0

Optimization Enabled:
0 MATIC

Other Settings:
-NA-
Block Transaction Gas Used Reward
Age Block Fee Address BC Fee Address Voting Power Jailed Incoming
Block Uncle Number Difficulty Gas Used Reward
Loading
Loading
Make sure to use the "Vote Down" button for any spammy posts, and the "Vote Up" for interesting conversations.